Sioux City, IA

6:03 AM CDT on March 30, 2017 (GMT -0500)
Sioux Gateway

Weather History for KSUX - August, 2012

Change the Weather History Date:

Tuesday, August 28, 2012

  Actual Average Record
Temperature  
Mean Temperature 79 °F 70 °F  
Max Temperature 96 °F 82 °F 99 °F (1955)
Min Temperature 62 °F 59 °F 39 °F (1986)
Degree Days  
Heating Degree Days 0 1  
Month to date heating degree days 18 6  
Since 1 June heating degree days 32 36  
Since 1 July heating degree days 18 9  
Cooling Degree Days 14 6  
Month to date cooling degree days 209 216  
Year to date cooling degree days 1121 761  
Since 1 June cooling degree days 956 697  
Growing Degree Days 29 (Base 50)    
Moisture  
Dew Point 61 °F    
Average Humidity 62    
Maximum Humidity 93    
Minimum Humidity 30    
Precipitation  
Precipitation 0.00 in 0.11 in 2.34 in (1960)
Month to date precipitation 1.71 2.90  
Year to date precipitation 19.14 20.21  
Snow  
Snow 0.00 in 0.00 in 0.00 in ()
Month to date snowfall 0.0 0.0  
Since 1 June snowfall 0.0 0.0  
Since 1 July snowfall 0.0 0.0  
Snow Depth 0.00 in    
Sea Level Pressure  
Sea Level Pressure 29.99 in    
Wind  
Wind Speed 11 mph (SSE)    
Max Wind Speed 24 mph    
Max Gust Speed 33 mph    
Visibility 10 miles    
Events      
T = Trace of Precipitation, MM = Missing Value Source: NWS Daily Summary

Daily Weather History Graph

Daily Weather History Graph

Search for Another Location

Airport or City:

Trip Planner

Search our weather history database for the weather conditions in past years. The results will help you decide how hot, cold, wet, or windy it might be!

Date:

Astronomy

Aug. 28, 2012 Rise Set
Actual Time 6:46 AM CDT 8:05 PM CDT
Civil Twilight 6:17 AM CDT 8:34 PM CDT
Nautical Twilight 5:42 AM CDT 9:09 PM CDT
Astronomical Twilight 5:05 AM CDT 9:46 PM CDT
Moon 6:10 PM CDT (8/28) 3:34 AM CDT (8/28)
Length of Visible Light 14h 16m
Length of Day
13h 18m
Waxing Gibbous, 90% of the Moon is Illuminated
Aug 28
Waxing Gibbous
Aug 31
Full
Sep 8
Last Quarter
Sep 15
New
Sep 22
First Quarter

Hourly Weather History & Observations

Time (CDT) Temp. Heat Index Dew Point Humidity Pressure Visibility Wind Dir Wind Speed Gust Speed Precip Events Conditions
12:52 AM 66.9 °F - 64.0 °F 90% 30.07 in 10.0 mi ESE 5.8 mph - N/A   Clear
1:52 AM 66.0 °F - 63.0 °F 90% 30.07 in 10.0 mi SE 8.1 mph - N/A   Clear
2:52 AM 64.0 °F - 61.0 °F 90% 30.06 in 10.0 mi ESE 5.8 mph - N/A   Clear
3:52 AM 63.0 °F - 60.1 °F 90% 30.06 in 9.0 mi ESE 6.9 mph - N/A   Clear
4:52 AM 63.0 °F - 61.0 °F 93% 30.05 in 10.0 mi SE 8.1 mph - N/A   Clear
5:52 AM 63.0 °F - 61.0 °F 93% 30.05 in 10.0 mi ESE 6.9 mph - N/A   Clear
6:52 AM 63.0 °F - 61.0 °F 93% 30.07 in 9.0 mi SE 6.9 mph - N/A   Clear
7:52 AM 64.9 °F - 62.1 °F 90% 30.07 in 10.0 mi ESE 9.2 mph - N/A   Clear
8:52 AM 70.0 °F - 64.0 °F 81% 30.06 in 10.0 mi SE 8.1 mph - N/A   Clear
9:52 AM 78.1 °F - 64.0 °F 62% 30.06 in 10.0 mi SSE 8.1 mph - N/A   Clear
10:52 AM 84.0 °F 85.8 °F 64.9 °F 53% 30.07 in 10.0 mi SSE 8.1 mph - N/A   Clear
11:52 AM 87.8 °F 89.4 °F 64.4 °F 46% 30.06 in 10.0 mi SSE 8.1 mph - N/A   Clear
12:52 PM 91.0 °F 91.9 °F 63.0 °F 39% 30.01 in 10.0 mi South 12.7 mph 21.9 mph N/A   Clear
1:52 PM 93.0 °F 94.2 °F 63.0 °F 37% 29.99 in 10.0 mi South 17.3 mph 23.0 mph N/A   Clear
2:52 PM 96.1 °F 96.9 °F 62.1 °F 32% 29.94 in 10.0 mi SSW 16.1 mph 25.3 mph N/A   Clear
3:52 PM 96.1 °F 96.9 °F 62.1 °F 32% 29.90 in 10.0 mi South 23.0 mph 31.1 mph N/A   Clear
4:52 PM 96.1 °F 96.4 °F 61.0 °F 31% 29.88 in 10.0 mi SSW 17.3 mph 26.5 mph N/A   Clear
5:52 PM 93.9 °F 92.9 °F 57.9 °F 30% 29.86 in 10.0 mi SSW 19.6 mph 27.6 mph N/A   Clear
6:52 PM 91.0 °F 90.0 °F 57.9 °F 33% 29.87 in 10.0 mi SSW 10.4 mph 18.4 mph N/A   Clear
7:52 PM 86.0 °F 85.0 °F 57.9 °F 38% 29.87 in 10.0 mi South 9.2 mph - N/A   Clear
8:52 PM 84.9 °F 84.2 °F 57.9 °F 40% 29.87 in 10.0 mi SSE 6.9 mph - N/A   Clear
9:52 PM 75.9 °F - 57.9 °F 54% 29.88 in 10.0 mi ESE 9.2 mph - N/A   Clear
10:52 PM 73.9 °F - 59.0 °F 59% 29.88 in 10.0 mi ESE 11.5 mph - N/A   Clear
11:52 PM 73.0 °F - 59.0 °F 61% 29.88 in 10.0 mi ESE 9.2 mph - N/A   Clear